[[{"header":{"parameterUnit":"m.s-1","parameterCategory":1,"la1":30.2992,"la2":30.254,"lo1":-89.0895,"lo2":-89.0443,"dy":0.0025,"dx":0.0025,"nx":19,"ny":19,"refTime":"2026-05-11T21:00:00:Z","depth":0,"parameterNumber":2,"parameterNumberName":"U-component_of_WINDS"},"data":[0,0,0,-4.5218,-4.5226,-4.5575,-4.5577,-4.6026,-4.603,0,0,0,0,0,0,0,0,0,0,0,-4.5117,-4.512,-4.5217,-4.5226,-4.5575,-4.5577,-4.6025,-4.603,0,0,0,0,0,0,0,0,0,0,0,-4.5115,-4.5119,-4.5123,-4.5228,-4.5575,-4.5577,-4.6024,-4.576,0,0,0,0,0,0,0,0,0,0,-4.542,-4.5329,-4.5118,-4.5123,-4.523,-4.5574,-4.5577,-4.5747,-4.5776,-4.5869,0,-4.5952,0,-4.5998,-4.606,-4.6062,0,0,0,-4.5225,-4.5304,-4.5396,-4.5124,-4.5233,-4.5574,-4.5417,-4.5763,-4.5796,-4.5908,-4.5959,-4.5975,-4.6006,-4.6063,-4.6066,-4.6606,-4.6608,0,0,-4.5206,-4.5181,-4.5374,-4.5418,-4.5365,-4.5406,-4.5428,-4.5783,-4.5837,-4.596,-4.5986,-4.6013,-4.6066,-4.607,-4.6603,-4.6606,0,0,0,-4.5151,-4.5168,-4.5251,-4.54,-4.5462,-4.5416,-4.5442,-4.5821,-4.5851,-4.5991,-4.6018,-4.6069,-4.6074,-4.66,-4.6604,-4.671,0,0,0,-4.5139,-4.5136,-4.5242,-4.5231,-4.5456,-4.5647,-4.5472,-4.5826,-4.5867,-4.6016,-4.6069,-4.6079,-4.6598,-4.6603,-4.6701,-4.6765,0,0,0,-4.5093,-4.513,-4.5182,-4.5229,-4.5378,-4.5641,-4.5691,-4.5835,-4.5884,-4.6062,-4.608,-4.6596,-4.6602,-4.6693,-4.6752,-4.6901,0,0,0,-4.5037,-4.5271,-4.5183,-4.5454,-4.5375,-4.5703,-4.5689,-4.5934,-4.61,-4.6071,-4.6598,-4.6604,-4.669,-4.6744,-4.6892,-4.7023,-4.7075,0,0,-4.5318,-4.5303,-4.5465,-4.5397,-4.5734,-4.5652,-4.6005,-4.618,-4.6219,-4.6474,-4.6488,-4.6704,-4.6751,-4.6899,-4.737,-4.7411,0,0,0,-4.5546,-4.5662,-4.5756,-4.5912,-4.605,-4.6174,-4.6297,-4.6361,-4.6579,-4.6345,-4.6797,-4.6826,-4.6914,-4.6978,-4.7013,-4.7091,-4.6632,-4.6631,-4.6631,-4.5911,-4.5947,-4.6217,-4.6295,-4.6446,-4.6569,-4.6695,-4.6803,-4.6796,-4.6902,-4.698,-4.7261,-4.7335,-4.7361,-4.7442,-4.705,-4.705,-4.7051,-4.7051,-4.6327,-4.6498,-4.6481,-4.6737,-4.6774,-4.6989,-4.7116,-4.7103,-4.7309,-4.7206,-4.7286,-4.7172,-4.7405,-4.7478,-4.7059,-4.7058,-4.7057,-4.7056,-4.7055,-4.6573,-4.6661,-4.6734,-4.6962,-4.7133,-4.7204,-4.7402,-4.7428,-4.7454,-4.7532,-4.7617,-4.7615,-4.7618,-4.757,-4.7571,-4.7572,-4.7573,-4.7573,-4.7574,-4.6799,-4.6878,-4.7042,-4.7207,-4.7309,-4.7448,-4.7572,-4.7674,-4.7794,-4.7797,-4.7798,-4.7781,-4.742,-4.733,-4.7589,-4.7587,-4.7585,-4.7583,-4.7582,-4.7213,-4.7123,-4.7376,-4.7479,-4.7674,-4.7842,-4.7871,-4.8076,-4.8164,-4.8261,-4.8226,-4.7954,-4.7942,-4.7914,-4.7841,-4.8216,-4.8216,-4.8216,-4.8216,-4.7422,-4.7417,-4.7681,-4.7844,-4.8006,-4.8057,-4.8342,-4.8439,-4.8526,-4.8583,-4.8531,-4.8434,-4.8405,-4.841,-4.8372,-4.8303,-4.8788,-4.8789,-4.879,-4.7679,-4.769,-4.7929,-4.8011,-4.8165,-4.8296,-4.8565,-4.8752,-4.8831,-4.8813,-4.8628,-4.8604,-4.8447,-4.8394,-4.8375,-4.8315,-4.819,0,0]},{"header":{"parameterUnit":"m.s-1","parameterCategory":1,"la1":30.2992,"la2":30.254,"lo1":-89.0895,"lo2":-89.0443,"dy":0.0025,"dx":0.0025,"nx":19,"ny":19,"refTime":"2026-05-11T21:00:00:Z","depth":0,"parameterNumber":3,"parameterNumberName":"V-component_of_WINDS"},"data":[0,0,0,-1.7015,-1.7021,-1.7349,-1.7351,-1.7737,-1.774,0,0,0,0,0,0,0,0,0,0,0,-1.6897,-1.6899,-1.7014,-1.7022,-1.7349,-1.7351,-1.7736,-1.774,0,0,0,0,0,0,0,0,0,0,0,-1.6896,-1.6899,-1.6901,-1.7023,-1.7349,-1.7351,-1.7735,-1.75,0,0,0,0,0,0,0,0,0,0,-1.7187,-1.7059,-1.6898,-1.6901,-1.7025,-1.7348,-1.7351,-1.7489,-1.7515,-1.7574,0,-1.7621,0,-1.7686,-1.7764,-1.7765,0,0,0,-1.7037,-1.7038,-1.7144,-1.6901,-1.7027,-1.7348,-1.7206,-1.7504,-1.7532,-1.7607,-1.7627,-1.7642,-1.7693,-1.7766,-1.7768,-1.8058,-1.8059,0,0,-1.7019,-1.6946,-1.7124,-1.7162,-1.7109,-1.7195,-1.7216,-1.7522,-1.7538,-1.7629,-1.7652,-1.7699,-1.7768,-1.7771,-1.8058,-1.8058,0,0,0,-1.6956,-1.6932,-1.7032,-1.7145,-1.7207,-1.7204,-1.7228,-1.7525,-1.7563,-1.7656,-1.7704,-1.777,-1.7775,-1.8057,-1.8058,-1.8018,0,0,0,-1.6946,-1.6896,-1.7023,-1.6982,-1.72,-1.737,-1.7223,-1.7542,-1.7579,-1.7702,-1.777,-1.7778,-1.8056,-1.8057,-1.8018,-1.8012,0,0,0,-1.6883,-1.6889,-1.6929,-1.6977,-1.7116,-1.7367,-1.7424,-1.7552,-1.7607,-1.7765,-1.7779,-1.8056,-1.8057,-1.8018,-1.8012,-1.8067,0,0,0,-1.6794,-1.689,-1.6927,-1.7053,-1.7112,-1.7339,-1.7422,-1.7596,-1.7726,-1.7772,-1.8056,-1.8058,-1.8018,-1.8012,-1.8066,-1.8099,-1.8107,0,0,-1.6874,-1.6897,-1.6977,-1.702,-1.7221,-1.7295,-1.7492,-1.7681,-1.7764,-1.7955,-1.7963,-1.8018,-1.8012,-1.8066,-1.8172,-1.8177,0,0,0,-1.6977,-1.7034,-1.7103,-1.7224,-1.737,-1.7495,-1.7662,-1.7732,-1.7898,-1.7847,-1.8055,-1.8054,-1.8089,-1.8108,-1.8113,-1.8147,-1.8064,-1.8063,-1.8063,-1.6986,-1.7086,-1.7224,-1.7362,-1.7478,-1.7649,-1.7752,-1.7876,-1.7943,-1.799,-1.8048,-1.81,-1.8119,-1.8123,-1.8158,-1.8074,-1.8073,-1.8073,-1.8073,-1.7113,-1.7208,-1.7294,-1.7459,-1.7563,-1.7703,-1.7871,-1.7913,-1.8059,-1.8065,-1.8101,-1.8098,-1.8126,-1.8162,-1.8071,-1.8072,-1.8072,-1.8072,-1.8072,-1.713,-1.7193,-1.7276,-1.746,-1.759,-1.7728,-1.7863,-1.7954,-1.804,-1.8075,-1.8146,-1.8147,-1.8159,-1.8102,-1.8103,-1.8103,-1.8103,-1.8103,-1.8103,-1.7114,-1.7209,-1.7312,-1.7474,-1.7563,-1.7692,-1.7863,-1.7954,-1.8077,-1.8132,-1.8133,-1.8195,-1.811,-1.8086,-1.8107,-1.8106,-1.8106,-1.8105,-1.8105,-1.7206,-1.7199,-1.7357,-1.7446,-1.7644,-1.7767,-1.7881,-1.8057,-1.8145,-1.8208,-1.8263,-1.8185,-1.8215,-1.8212,-1.8194,-1.8241,-1.8241,-1.8241,-1.8241,-1.7219,-1.7243,-1.7425,-1.7561,-1.7705,-1.7823,-1.7999,-1.8133,-1.827,-1.8331,-1.8337,-1.832,-1.8313,-1.8348,-1.8342,-1.8326,-1.8406,-1.8406,-1.8406,-1.7281,-1.7323,-1.7455,-1.7589,-1.775,-1.7886,-1.8054,-1.8207,-1.8362,-1.8415,-1.838,-1.8373,-1.8347,-1.8333,-1.8384,-1.8373,-1.8346,0,0]}]]